Regional Weather Roundup
Issued by NWS

Home | Current Version | Previous Version | Graphics & Text | Print | Product List | Glossary On
Versions: 1 2 3 4 5 6 7 8 9 10 11 12 13 14 15 16 17 18 19 20 21 22 23 24 25 26 27 28 29 30 31 32 33 34 35 36 37 38 39 40 41 42 43 44 45 46 47 48 49 50
000
ASUS43 KTOP 211959
RWRKS

WEATHER ROUNDUP FOR KANSAS
NATIONAL WEATHER SERVICE GOODLAND KS
300 PM CDT SAT OCT 21 2017

NOTE:  "FAIR" INDICATES FEW OR NO CLOUDS BELOW 12,000 FEET WITH NO
SIGNIFICANT WEATHER AND/OR OBSTRUCTIONS TO VISIBILITY.

KSZ001>006-013>018-027>032-041>047-212100-
NORTHWEST KANSAS

CITY           SKY/WX    TMP DP  RH WIND       PRES   REMARKS
GOODLAND       SUNNY     61  21  21 N24G38    29.94R
HAYS           CLOUDY    65  39  38 NW21G26   29.86R
HILL CITY      CLOUDY    62  36  37 N29G39    29.92R
RUSSELL        MOSUNNY   70  40  33 N21G30    29.83S
$$

KSZ061>065-074>080-084>089-212100-
SOUTHWEST KANSAS

CITY           SKY/WX    TMP DP  RH WIND       PRES   REMARKS
DODGE CITY     PTSUNNY   63  35  35 N20G31    29.90R
ELKHART          N/A     61  28  28 N14         N/A
GARDEN CITY    CLOUDY    61  32  33 N25G31    29.93R
GREAT BEND     MOSUNNY   69  42  37 N20G25    29.84R
LIBERAL        CLOUDY    61  35  37 N23       29.93R
$$

KSZ066>073-081>083-090>101-212100-
SOUTHEAST KANSAS

CITY           SKY/WX    TMP DP  RH WIND       PRES   REMARKS
CHANUTE        PTSUNNY   77  65  66 S24G31    29.81F
COFFEYVILLE    CLOUDY    78  65  63 S22G31    29.81F
HUTCHINSON     CLOUDY    71  43  36 NW15      29.79S
MEDICINE LODGE   N/A     71  40  32 N18G26    29.79S
NEWTON         CLOUDY    68  50  52 NW15G30   29.78R
PARSONS        CLOUDY    77  64  64 S14G26    29.83F
WICHITA INTL   CLOUDY    73  68  84 SW16      29.76S
WICHITA JABRA  CLOUDY    72  68  87 SW10      29.76S
WICHITA MCCONL CLOUDY    75  63  65 SW17G24   29.76F
WINFIELD       CLOUDY    74  68  81 S9        29.79F
$$

KSZ007>012-019>026-033>040-048>060-102>105-212100-
NORTHEAST KANSAS

CITY           SKY/WX    TMP DP  RH WIND       PRES   REMARKS
CONCORDIA      PTSUNNY   67  44  43 NW18G25   29.81R
EMPORIA        PTSUNNY   76  64  66 S26G36    29.76F
LAWRENCE       CLOUDY    75  65  70 S15G28    29.78F
MANHATTAN      CLOUDY    69  52  54 W9        29.75R
OLATHE IND     CLOUDY    74  64  71 S16       29.82S
OLATHE EXE     CLOUDY    73  64  73 S16G24    29.82R
SALINA         CLOUDY    71  49  45 NW21G28   29.79S
TOPEKA BILLARD CLOUDY    75  65  70 S16G28    29.76F
TOPEKA FORBES  CLOUDY    76  65  68 S18G26    29.76F
$$




USA.gov is the U.S. government's official web portal to all federal, state and local government web resources and services.